EHI
0 0 0 0 0 0 0 0 0 0 0 0 0 0 0 0 0 0 0 0 0 0 0 0 0 0 0 0 0 0 0 0 0 0 0 0 0 0
0 0 0 0 0 0 0 0 0 0 0 0 0 0 0 0 0 0 0 0 0 0 0 0 0 0 0 0 0 0 0 0 0 0 0 0 0 0
0 0 0 0 0 0 0 0 0 0 0 0 0 0 0 0 0 0 0 0 0 0 0 0 0 0 0 0 0 0 0 0 0 0 0 0 0 0
0 0 0 0 0 0 0 0 0 0 0 0 0 0 0 0 0 0 0 0 0 0 0 0 0 0 0 0 0 0 0 0 0 0 0 0 0 0
0 0 0 0 0 0 0 0 0 0 0 0 0 0 0 0 0 0 0 0 0 0 0 0 0 0 0 0 0 0 0 0 0 0 0 0 0 0
0 0 0 0 0 0 0 0 0 0 0 0 0 0 0 0 0 0 0 0 0 0 0 0 0 0 0 0 0 0 0 0 0 0 0 0 0 0
0 0 0 0 0 0 0 0 0 0 0 0 0 0 0 0 0 0 0 0 0 0 0 0 0 0 0 0 0 0 0 0 0 0 0 0 0 0
0 0 0 0 0 0 0 0 0 0 0 0 0 0 0 0 0 0 0 0 0 0 0 0 0 0 0 0 0 0 0 0 0 0 0 0 0 0
0 0 0 0 0 0 0 0 0 0 0 0 0 0 0 0 0 0 0 0 0 0 0 0 0 0 0 0 0 0 0 0 0 0 0 0 0 0
0 0 0 0 0 0 0 0 0 0 0 0 0 0 0 0 0 0 0 0 0 0 0 0 0 0 0 0 0 0 0 0 0 0 0 0 0 0
0 0 0 0 0 0 0 0 0 0 0 0 0 0 0 0 0 0 0 0 0 0 0 0 0 0 0 0 0 0 0 0 0 0 0 0 0 0
0 0 0 0 0 0 0 0 0 0 0 0 0 0 0 0 0 0 0 0 0 0 0 0 0 0 0 0 0 0 0 0 0 0 0 0 0 0
0 0 0 0 0 0 0 0 0 0 0 0 0 0 0 0 0 0 0 0 0 0 0 0 0 0 0 0 0 0 0 0 0 0 0 0 0 0
0 0 0 0 0 0 0 0 0 0 0 0 0 0 0 0 0 0 0 0 0 0 0 0 0 0 0 0 0 0 0 0 0 0 0 0 0 0
0 0 0 0 0 0 0 0 0 0 0 0 0 0 0 0 0 0 0 0 0 0 0 0 0 0 0 0 0 0 0 0 0 0 0 0 0 0
0 0 0 0 0 0 0 0 0 0 0 0 0 0 0 0 0 0 0 0 0 0 0 0 0 0 0 0 0 0 0 0 0 0 0 0 0 0
0 0 0 0 0 0 0 0 0 0 0 0 0 0 0 0 0 0 0 0 0 0 0 0 0 0 0 0 0 0 0 0 0 0 0 0 0 0
0 0 0 0 0 0 0 0 0 0 0 0 0 0 0 0 0 0 0 0 0 0 0 0 0 0 0 0 0 0 0 0 0 0 0 0 0 0
0 0 0 0 0 0 0 0 0 0 0 0 0 0 0 0 0 0 0 0 0 0 0 0 0 0 0 0 0 0 0 0 0 0 0 0 0 0
0 0 0 0 0 0 0 0 0 0 0 0 0 0 0 0 0 0 0 0 0 0 0 0 0 0 0 0 0 0 0 0 0 0 0 0 0 0
0 0 0 0 0 0 0 0 0 0 0 0 0 0 0 0 0 0 0 0 0 0 0 0 0 0 0 0 0 0 0 0 0 0 0 0 0 0
0 0 0 0 0 0 0 0 0 0 0 0 0 0 0 0 0 0 0 0 0 0 0 0 0 0 0 0 0 0 0 0 0 0 0 0 0 0
0 0 0 0 0 0 0 0 0 0 0 0 0 0 0 0 0 0 0 0 0 0 0 0 0 0 0 0 0 0 0 0 0 0 0 0 0 0
Wind_Speed
5 6 6 5 5 5 5 5 5 6 6 4 3 3 3 4 5 6 7 7 9 11 11 12 11 12 12 12 12 12 11 12 12 13 14 15 16 17
5 6 6 5 5 5 5 5 5 6 6 3 4 4 5 5 6 7 7 9 10 11 12 12 11 11 11 12 12 12 12 12 13 14 15 16 16 16
5 5 6 6 5 4 4 5 5 5 7 5 4 5 6 6 6 6 7 7 7 10 12 13 12 12 12 11 12 12 12 12 13 14 15 16 16 16
6 6 6 5 6 5 5 6 6 6 6 7 5 5 7 6 7 7 7 7 7 9 10 12 12 12 12 11 11 11 11 12 13 14 15 16 16 17
6 6 6 6 6 5 6 6 5 5 5 6 6 5 5 5 6 7 7 7 7 7 9 10 12 12 13 12 12 11 11 12 13 14 14 15 16 17
5 5 5 6 6 6 6 6 6 6 6 6 5 5 5 5 5 5 6 6 6 6 7 8 11 12 12 12 12 11 11 12 13 13 14 14 15 16
5 5 5 6 7 7 6 6 6 6 5 5 5 5 5 4 5 5 6 7 7 6 6 6 7 7 8 10 11 11 11 12 12 13 13 14 15 15
5 5 5 5 6 8 9 9 9 8 7 6 6 7 7 6 5 5 6 6 7 4 6 7 7 7 7 7 10 12 12 12 13 13 13 14 14 15
5 5 4 5 6 6 7 8 9 10 11 9 9 9 8 7 7 7 7 8 8 6 6 8 7 8 7 8 11 12 12 12 12 13 13 13 13 14
5 6 6 6 5 6 6 6 7 7 8 8 8 9 8 8 7 8 8 8 8 6 6 7 7 7 8 7 10 11 11 12 12 12 12 13 13 13
5 6 6 6 7 8 6 6 7 6 5 7 8 9 10 10 8 5 5 5 7 6 4 5 6 8 7 7 7 9 10 10 11 11 12 12 13 12
4 5 6 6 7 7 6 6 6 6 5 5 6 7 7 7 8 7 6 6 5 5 3 4 5 5 6 5 5 6 7 9 10 11 11 11 11 8
4 4 4 6 7 8 7 6 7 7 5 5 5 5 5 4 5 5 5 6 6 6 4 4 5 5 5 6 6 6 6 6 6 7 9 10 10 8
5 4 4 7 8 8 6 6 7 7 4 4 4 4 4 4 4 5 5 6 7 8 7 6 5 6 6 7 6 5 5 5 5 6 5 7 8 10
5 6 8 8 7 6 5 7 6 4 3 4 4 4 4 4 4 4 4 4 6 6 6 6 6 5 6 6 6 5 6 5 5 5 5 5 5 5
5 6 7 6 5 5 5 4 4 3 4 4 4 4 4 3 3 3 3 4 4 4 4 5 6 6 6 6 6 6 5 4 4 5 6 6 5 5
5 4 4 3 3 3 3 3 3 3 3 3 4 3 3 3 3 3 3 3 4 5 5 4 4 5 6 6 6 6 5 5 5 5 5 6 5 5
6 4 4 4 4 3 4 4 3 3 3 4 4 3 3 3 3 3 3 4 4 5 4 4 4 4 3 4 5 5 5 5 5 5 5 5 5 4
5 4 4 4 4 4 3 4 4 4 4 4 4 4 3 3 3 4 4 4 4 4 4 3 3 3 4 5 3 4 4 5 5 5 4 5 5 5
4 4 4 4 4 4 4 4 4 4 3 4 4 4 4 4 4 4 4 4 4 4 4 3 3 3 4 5 5 5 5 5 4 5 5 4 5 5
4 4 4 4 4 4 4 4 4 4 4 4 4 4 4 4 4 4 4 5 5 4 4 4 4 5 4 3 4 4 4 4 5 4 4 4 4 3
4 5 4 4 4 4 4 4 4 4 4 4 4 4 4 4 4 5 4 4 4 4 5 4 4 3 3 4 4 5 5 5 4 4 4 4 3 3
5 5 4 4 4 4 4 4 5 4 4 4 4 4 4 4 4 4 4 4 4 4 4 4 4 3 3 3 3 4 5 5 4 3 3 4 4 4
Wind_Direction
262 260 257 254 250 251 253 251 252 258 257 259 260 244 269 271 271 271 270 267 270 268 268 268 269 272 271 272 272 273 274 276 277 276 276 275 270 270
263 261 260 257 252 252 250 249 250 256 261 268 278 290 281 274 274 277 276 279 269 266 269 270 273 273 269 268 270 270 271 272 274 275 276 277 276 273
263 263 263 259 254 250 248 246 249 251 260 273 280 283 283 279 281 280 276 274 269 269 269 269 269 267 266 267 271 270 271 272 273 274 275 277 278 277
263 261 260 255 253 251 246 243 246 250 256 269 276 278 280 275 277 278 278 276 276 272 271 270 269 268 266 267 271 275 275 274 274 275 275 276 278 278
266 263 262 255 254 255 253 251 249 252 254 257 269 277 277 270 277 277 282 280 281 273 271 268 268 270 268 267 269 272 276 277 276 276 276 277 279 280
269 267 264 259 260 263 260 260 258 257 255 251 261 270 272 271 271 276 283 282 282 280 272 274 271 267 264 265 266 267 271 276 280 279 279 279 280 280
279 270 266 265 267 266 265 263 258 256 256 254 259 268 267 265 265 273 277 286 283 273 276 274 273 265 263 261 258 262 272 277 279 282 283 283 281 279
288 286 279 269 271 270 270 266 260 255 253 255 260 258 264 265 268 267 273 281 282 271 281 279 271 267 264 261 264 268 271 275 280 282 284 284 282 280
291 288 285 283 279 274 274 270 267 263 255 253 255 257 263 262 263 266 266 271 275 282 282 278 273 271 269 265 264 264 270 275 279 283 285 285 285 283
292 290 286 283 280 283 278 273 272 271 266 260 257 261 264 264 259 260 266 276 281 276 269 275 281 280 279 268 257 260 270 275 280 285 289 290 290 287
294 292 287 283 286 288 278 273 273 276 279 276 279 275 271 269 266 262 261 268 277 273 267 270 281 290 279 265 257 258 267 273 282 286 289 293 293 290
300 301 296 296 301 298 284 275 277 284 290 289 283 279 271 264 261 254 251 257 274 273 254 269 277 290 284 268 271 268 265 271 278 280 285 291 295 290
303 305 308 308 307 306 298 283 281 289 289 285 284 284 281 271 265 264 260 253 260 264 262 269 274 278 273 282 279 270 272 281 282 279 278 287 292 289
300 304 311 313 309 309 305 298 298 295 284 280 278 281 284 284 285 281 275 270 264 264 264 265 265 269 275 277 278 277 277 277 281 284 286 287 284 283
302 307 309 311 305 301 305 308 306 297 284 277 277 283 286 285 288 291 292 281 275 270 263 263 262 263 265 269 274 280 287 282 278 285 289 288 284 284
300 302 305 306 298 296 301 304 301 298 296 285 287 289 290 286 284 287 289 293 285 278 272 265 263 261 263 269 270 275 277 273 281 288 287 284 283 278
300 296 297 302 306 305 304 303 299 297 298 301 300 295 291 290 291 292 283 287 280 280 287 289 278 268 260 260 265 264 275 281 278 285 289 286 280 275
290 286 290 295 299 302 303 305 306 307 304 300 295 293 291 290 292 295 290 284 283 282 284 295 301 300 286 265 240 260 271 281 286 283 276 278 279 279
275 280 285 288 291 294 295 297 299 302 300 296 291 289 290 288 285 288 290 286 285 288 292 294 294 294 291 295 279 244 274 286 286 287 280 280 278 286
267 272 276 281 285 286 289 292 294 295 292 291 289 286 286 284 283 285 286 288 287 291 294 292 289 293 286 288 293 290 271 271 282 284 291 294 287 288
266 266 267 271 276 280 284 286 286 287 288 289 289 286 285 285 283 283 285 287 286 286 289 292 294 298 295 284 281 288 295 279 274 277 286 290 296 299
267 266 264 263 266 269 275 279 280 280 281 281 284 286 284 283 283 283 285 287 286 287 292 298 301 301 296 284 288 297 304 313 308 290 282 280 277 272
268 268 266 262 259 259 263 268 272 277 278 278 280 283 286 285 285 285 287 286 287 293 299 303 306 304 296 285 287 291 300 309 315 321 322 328 317 308